N8DNY-13 Weather Reports


Display with metric or nautical units.
time (UTC)temp
F
wind
direction
speed
MPH
gust
MPH
rain 1hr
in
rain 24hr
in
rain mn
in
humidity
%
barometer
mb
20260507192606 64 326 1.0 2.0 0.00 0.00 0.00 36 1016.7
20260507191101 62 52 3.0 5.0 0.00 0.00 0.00 36 1016.6
20260507185550 60 278 1.0 2.0 0.00 0.00 0.00 39 1016.8
20260507184044 61 298 0.0 1.0 0.00 0.00 0.00 41 1016.6
20260507182603 61 280 0.0 1.0 0.00 0.00 0.00 37 1016.8
20260507181100 61 251 1.0 2.0 0.00 0.00 0.00 36 1016.8
20260507175540 61 295 1.0 2.0 0.00 0.00 0.00 40 1017.0
20260507174055 60 328 0.0 1.0 0.00 0.00 0.00 40 1017.2
20260507172530 60 263 2.0 3.0 0.00 0.00 0.00 41 1017.2
20260507171020 60 267 0.0 0.0 0.00 0.00 0.00 44 1017.4
20260507165534 62 292 1.0 2.0 0.00 0.00 0.00 39 1017.5
20260507164011 60 255 0.0 2.0 0.00 0.00 0.00 41 1017.7
20260507162529 60 281 0.0 1.0 0.00 0.00 0.00 43 1017.4
20260507161022 60 289 0.0 1.0 0.00 0.00 0.00 43 1017.6
20260507155502 60 273 1.0 1.0 0.00 0.00 0.00 40 1017.6
20260507154000 59 266 1.0 2.0 0.00 0.00 0.00 47 1017.4
20260507152450 60 283 1.0 2.0 0.00 0.00 0.00 46 1017.6
20260507150943 60 290 0.0 0.0 0.00 0.00 0.00 44 1017.4
20260507145500 60 284 0.0 0.0 0.00 0.00 0.00 49 1017.3
20260507143939 59 286 0.0 0.0 0.00 0.00 0.00 45 1017.3
20260507142437 58 282 0.0 0.0 0.00 0.00 0.00 50 1017.2
20260507140955 57 271 0.0 0.0 0.00 0.00 0.00 52 1017.7
20260507135430 56 284 0.0 0.0 0.00 0.00 0.00 50 1017.7
20260507133920 56 285 0.0 1.0 0.00 0.00 0.00 54 1017.6
20260507132413 55 275 0.0 1.0 0.00 0.00 0.00 54 1017.7
20260507130910 53 277 0.0 0.0 0.00 0.00 0.00 58 1017.8
20260507125401 53 278 0.0 0.0 0.00 0.00 0.00 58 1017.9
20260507123853 50 292 0.0 0.0 0.00 0.00 0.00 65 1017.8
20260507122350 49 280 0.0 0.0 0.00 0.00 0.00 67 1017.9
20260507120849 47 289 0.0 0.0 0.00 0.00 0.00 69 1017.8
20260507115348 46 280 0.0 0.0 0.00 0.00 0.00 73 1017.6
20260507113840 44 284 0.0 0.0 0.00 0.00 0.00 75 1017.5
20260507112330 43 280 0.0 0.0 0.00 0.00 0.00 77 1017.2
20260507110828 42 285 0.0 0.0 0.00 0.00 0.00 80 1017.1
20260507105323 41 281 0.0 0.0 0.00 0.00 0.00 85 1017.1
20260507103820 40 284 0.0 0.0 0.00 0.00 0.00 87 1017.1
20260507102310 39 284 0.0 0.0 0.00 0.00 0.00 89 1016.8
20260507100800 39 284 0.0 0.0 0.00 0.00 0.00 88 1016.7
20260507095257 39 284 0.0 0.0 0.00 0.00 0.00 86 1016.8
20260507093750 40 284 0.0 0.0 0.00 0.00 0.00 84 1016.7
20260507092240 40 284 0.0 0.0 0.00 0.00 0.00 82 1016.6
20260507090739 40 284 0.0 0.0 0.00 0.00 0.00 80 1016.5
20260507085230 42 284 0.0 0.0 0.00 0.00 0.00 77 1016.7
20260507083720 43 284 0.0 0.0 0.00 0.00 0.00 73 1016.9
20260507082239 44 284 0.0 0.0 0.00 0.00 0.00 72 1016.8
20260507080710 46 284 0.0 0.0 0.00 0.00 0.00 69 1016.8
20260507075200 47 285 0.0 0.0 0.00 0.00 0.00 68 1017.0
20260507073700 47 289 0.0 0.0 0.00 0.00 0.00 68 1016.9
20260507072156 47 289 0.0 0.0 0.00 0.00 0.00 67 1016.7
20260507070710 48 289 0.0 0.0 0.00 0.00 0.00 66 1016.7
20260507065140 47 289 0.0 0.0 0.00 0.00 0.00 66 1017.1
20260507063635 48 289 0.0 0.0 0.00 0.00 0.00 67 1017.1
20260507062130 48 289 0.0 0.0 0.00 0.00 0.00 66 1017.0
20260507060640 48 289 0.0 0.0 0.00 0.00 0.00 64 1017.2
20260507055114 47 289 0.0 0.0 0.00 0.00 0.00 66 1017.3
20260507053610 47 289 0.0 0.0 0.00 0.00 0.00 64 1017.2
20260507052100 47 289 0.0 0.0 0.00 0.00 0.00 63 1017.4
20260507050554 47 289 0.0 0.0 0.00 0.00 0.00 63 1017.4
20260507045110 47 289 0.0 0.0 0.00 0.00 0.00 62 1017.4
20260507043540 47 289 0.0 0.0 0.00 0.00 0.00 64 1017.4
20260507042033 47 289 0.0 0.0 0.00 0.00 0.00 62 1017.4
20260507040553 47 289 0.0 0.0 0.00 0.00 0.00 62 1017.3
20260507035050 47 289 0.0 0.0 0.00 0.06 0.06 62 1017.5
20260507033530 47 289 0.0 0.0 0.00 0.06 0.06 59 1017.7
20260507032020 48 289 0.0 0.0 0.00 0.06 0.06 56 1017.9
20260507030511 49 289 0.0 0.0 0.00 0.06 0.06 54 1017.8
20260507025010 50 289 0.0 0.0 0.00 0.06 0.06 51 1017.9
20260507023502 50 289 0.0 0.0 0.00 0.06 0.06 49 1017.8
20260507022002 51 289 0.0 0.0 0.00 0.06 0.06 49 1017.8
20260507020502 51 289 0.0 0.0 0.00 0.06 0.06 49 1017.9
20260507015000 51 283 0.0 0.0 0.00 0.06 0.06 49 1017.6
20260507013457 52 287 0.0 0.0 0.00 0.06 0.06 48 1017.5
20260507011956 52 287 0.0 0.0 0.00 0.06 0.06 48 1017.2
20260507010454 53 301 0.0 0.0 0.00 0.06 0.06 47 1017.1
20260507004951 53 281 0.0 0.0 0.00 0.06 0.06 47 1017.0
20260507003500 53 288 0.0 0.0 0.00 0.06 0.06 45 1016.9
20260507001933 54 279 0.0 1.0 0.00 0.06 0.06 45 1016.6
20260507000434 54 288 0.0 0.0 0.00 0.06 0.06 44 1016.9
20260506234930 55 290 0.0 1.0 0.00 0.06 0.06 45 1016.6
20260506233430 55 287 0.0 0.0 0.00 0.06 0.06 41 1016.9
20260506231926 56 279 0.0 0.0 0.00 0.06 0.06 42 1016.6
20260506230425 56 306 0.0 0.0 0.00 0.06 0.06 41 1016.7
20260506224942 56 279 0.0 0.0 0.00 0.06 0.06 40 1016.8
20260506223440 57 283 0.0 0.0 0.00 0.06 0.06 41 1016.7
20260506221910 57 286 0.0 0.0 0.00 0.06 0.06 39 1016.7
20260506220422 57 291 0.0 1.0 0.00 0.06 0.06 39 1016.9
20260506214900 58 287 0.0 0.0 0.00 0.06 0.06 40 1016.8
20260506213350 58 277 0.0 0.0 0.00 0.06 0.06 40 1017.0
20260506211900 58 314 0.0 1.0 0.00 0.06 0.06 37 1016.7
20260506210340 57 272 0.0 1.0 0.00 0.06 0.06 39 1016.6
20260506204830 59 285 0.0 1.0 0.00 0.06 0.06 37 1016.7
20260506203341 58 275 1.0 2.0 0.00 0.06 0.06 39 1016.6
20260506201820 59 279 0.0 1.0 0.00 0.06 0.06 39 1016.8
20260506200318 58 277 0.0 1.0 0.00 0.06 0.06 39 1016.7
20260506194836 57 273 0.0 1.0 0.00 0.06 0.06 43 1016.8